"Pseudo-MPEC" for X68473

Created 2020 May 27 21:07:17 UT using Find_Orb

Click here for an explanation of pseudo-MPECs

 
 Astrometry: 
     X68473   C2020 05 11?`Astrometry!in)%d0DuT_+Et+JYredacted;$6Rclick9'(k^sD29
     X68473   C2020 05 11n#YIl'RKk=o@qhere2^0q*_TrDJsLRfore0%33^6Y?B+d9+0fCu]D29
     X68473   C2020 05 11'Z96,?ZW9,/Xp5E]M5=GW1Kp5Cn0ZuDteQmFb`,K#explanationD29

Station data:
(D29) Purple Mountain Observatory, XuYi Station  (N32.734366 E118.463900)
   China.  Observers H. B. Zhao, B. Li, G. Zhaori, R. Q. Hong, L. F. Hu.
   Measurers H. B. Zhao, B. Li. H. Lu, G. Zhaori. 1.04-m f/1.8 Schmidt + CCD.

Orbital elements:  X68473
   Perihelion 2020 Apr 5.483621 +/- 53.5 TT = 11:36:24 (JD 2458944.983621)
Epoch 2020 May 12.0 TT = JDT 2458981.5   Earth MOID: 0.7930   AutoNEOCP
M   6.50580401 +/- 25               (J2000 ecliptic)
n   0.17816125 +/- 0.246            Peri.   76.94698 +/- 100
a   3.12795529 +/- 2.87             Node   123.43005 +/- 48
e   0.4517071 +/- 0.253             Incl.   15.68186 +/- 8
P   5.53                   H 19.6   G  0.15   U 11.8  SR
q 1.71503560 +/- 0.555    Q 4.54087499 +/- 79.1
From 3 observations 2020 May 11 (40.7 min); mean residual 0".12
Residuals in arcseconds: 
200511 D29  .09-  .07+    200511 D29  .19+  .14-    200511 D29  .09-  .07+    

Ephemerides (geocentric):
Date (UTC) HH   RA              Dec         delta   r     elong  mag " sig PA
---- -- -- --  -------------   -----------  ------ ------ -----  --- ---- ---
2020 05 27 21  14 14 48.110   +17 58 28.03  .94430 1.7755 130.1 21.9  33d  19
2020 05 27 22  14 14 48.475   +17 57 46.18  .94457 1.7756 130.1 21.9  33d  19
2020 05 27 23  14 14 48.843   +17 57 04.30  .94483 1.7757 130.1 21.9  33d  19
2020 05 28 00  14 14 49.214   +17 56 22.39  .94509 1.7758 130.1 21.9  33d  19
2020 05 28 01  14 14 49.587   +17 55 40.45  .94535 1.7759 130.1 21.9  33d  18
2020 05 28 02  14 14 49.964   +17 54 58.49  .94561 1.7760 130.0 22.0  33d  18
2020 05 28 03  14 14 50.343   +17 54 16.49  .94588 1.7761 130.0 22.0  33d  18
2020 05 28 04  14 14 50.725   +17 53 34.46  .94614 1.7762 130.0 22.0  33d  18
2020 05 28 05  14 14 51.110   +17 52 52.40  .94640 1.7763 130.0 22.0  33d  18
2020 05 28 06  14 14 51.498   +17 52 10.31  .94667 1.7764 129.9 22.0  33d  18
2020 05 28 07  14 14 51.888   +17 51 28.20  .94693 1.7764 129.9 22.0  33d  18
2020 05 28 08  14 14 52.281   +17 50 46.05  .94720 1.7765 129.9 22.0  33d  18
2020 05 28 09  14 14 52.677   +17 50 03.88  .94746 1.7766 129.9 22.0  34d  18
2020 05 28 10  14 14 53.076   +17 49 21.68  .94772 1.7767 129.9 22.0  34d  18
2020 05 28 11  14 14 53.478   +17 48 39.44  .94799 1.7768 129.8 22.0  34d  18
2020 05 28 12  14 14 53.882   +17 47 57.18  .94825 1.7769 129.8 22.0  34d  18
2020 05 28 13  14 14 54.290   +17 47 14.89  .94852 1.7770 129.8 22.0  34d  17
2020 05 28 14  14 14 54.700   +17 46 32.57  .94878 1.7771 129.8 22.0  34d  17
2020 05 28 15  14 14 55.113   +17 45 50.22  .94905 1.7772 129.8 22.0  34d  17
2020 05 28 16  14 14 55.528   +17 45 07.85  .94932 1.7773 129.7 22.0  34d  17
2020 05 28 17  14 14 55.947   +17 44 25.44  .94958 1.7774 129.7 22.0  34d  17
2020 05 28 18  14 14 56.368   +17 43 43.00  .94985 1.7775 129.7 22.0  34d  17
2020 05 28 19  14 14 56.792   +17 43 00.54  .95011 1.7776 129.7 22.0  34d  17
2020 05 28 20  14 14 57.219   +17 42 18.05  .95038 1.7777 129.7 22.0  34d  17
2020 05 28 21  14 14 57.649   +17 41 35.53  .95065 1.7778 129.6 22.0  34d  17
2020 05 28 22  14 14 58.081   +17 40 52.98  .95091 1.7779 129.6 22.0  34d  17
2020 05 28 23  14 14 58.516   +17 40 10.40  .95118 1.7780 129.6 22.0  34d  17
2020 05 29 00  14 14 58.955   +17 39 27.80  .95145 1.7781 129.6 22.0  34d  17
2020 05 29 01  14 14 59.395   +17 38 45.16  .95172 1.7782 129.6 22.0  34d  17
2020 05 29 02  14 14 59.839   +17 38 02.50  .95198 1.7782 129.5 22.0  34d  17
2020 05 29 03  14 15 00.286   +17 37 19.81  .95225 1.7783 129.5 22.0  34d  17
2020 05 29 04  14 15 00.735   +17 36 37.09  .95252 1.7784 129.5 22.0  34d  17
2020 05 29 05  14 15 01.187   +17 35 54.35  .95279 1.7785 129.5 22.0  34d  17
2020 05 29 06  14 15 01.642   +17 35 11.57  .95306 1.7786 129.5 22.0  34d  17
2020 05 29 07  14 15 02.100   +17 34 28.77  .95333 1.7787 129.4 22.0  34d  16
2020 05 29 08  14 15 02.560   +17 33 45.94  .95360 1.7788 129.4 22.0  34d  16
2020 05 29 09  14 15 03.024   +17 33 03.09  .95386 1.7789 129.4 22.0  34d  16
2020 05 29 10  14 15 03.490   +17 32 20.20  .95413 1.7790 129.4 22.0  34d  16
2020 05 29 11  14 15 03.959   +17 31 37.29  .95440 1.7791 129.3 22.0  34d  16
2020 05 29 12  14 15 04.431   +17 30 54.35  .95467 1.7792 129.3 22.0  34d  16
2020 05 29 13  14 15 04.905   +17 30 11.38  .95494 1.7793 129.3 22.0  34d  16
2020 05 29 14  14 15 05.382   +17 29 28.38  .95521 1.7794 129.3 22.0  34d  16
2020 05 29 15  14 15 05.863   +17 28 45.36  .95549 1.7795 129.3 22.0  34d  16
2020 05 29 16  14 15 06.346   +17 28 02.31  .95576 1.7796 129.2 22.0  34d  16
2020 05 29 17  14 15 06.831   +17 27 19.23  .95603 1.7797 129.2 22.0  34d  16
2020 05 29 18  14 15 07.320   +17 26 36.12  .95630 1.7798 129.2 22.0  34d  16
2020 05 29 19  14 15 07.811   +17 25 52.99  .95657 1.7799 129.2 22.0  34d  16
2020 05 29 20  14 15 08.306   +17 25 09.83  .95684 1.7800 129.2 22.0  34d  16